Regional Weather Roundup
Issued by NWS Northern Indiana

Home | Current Version | Previous Version | Text Only | Print | Product List | Glossary Off
Versions: 1 2 3 4 5 6 7 8 9 10 11 12 13 14 15 16 17 18 19 20 21 22 23 24 25 26 27 28 29 30 31 32 33 34 35 36 37 38 39 40 41 42 43 44 45 46 47 48 49 50

000
ASUS43 KIWX 292110
RWRIWX

KIWX WEATHER ROUNDUP
NATIONAL WEATHER SERVICE NORTHERN INDIANA
500 PM EDT TUE JUL 29 2014

NOTE: "FAIR" INDICATES FEW OR NO CLOUDS BELOW 12,000 FEET WITH NO
SIGNIFICANT WEATHER AND/OR OBSTRUCTIONS TO VISIBILITY.

* THESE STATIONS ARE NOT UNDER NWS QUALITY CONTROL. THEY ALSO MAY NOT
  REPORT WEATHER SUCH AS PRECIPITATION OR FOG.

INZ001>027-292200-
NORTHERN INDIANA

CITY           SKY/WX    TMP DP  RH WIND       PRES   REMARKS
GARY*          PTSUNNY   72  59  64 VRB7      30.03S
VALPARAISO     MOSUNNY   77  55  46 VRB5      30.02F
MICHIGAN CITY* SUNNY     72  54  53 N7        30.03F
LAPORTE*       SUNNY     74  53  48 NW9       30.03S
KNOX*          SUNNY     76  52  43 N12G20    30.01S
SOUTH BEND     SUNNY     74  54  49 W15       30.03S
ELKHART*       SUNNY     75  54  46 NW12G18   30.02S
GOSHEN         SUNNY     73  55  53 NW13G21   30.00S
MONTICELLO*    CLOUDY    73  58  61 NW8       30.02S
LOGANSPORT*    PTSUNNY   68  61  77 S3        30.03S
ROCHESTER*     MOSUNNY   77  57  50 W6        30.01F
WARSAW*        MOSUNNY   75  54  46 NW14G22   30.01S
ANGOLA*        PTSUNNY   70  61  73 CALM      30.00S
FORT WAYNE     TSTM      72  55  55 W12       30.01F
HUNTINGTON*    CLOUDY    70  55  59 W9G17     30.02R
PERU/GRISSOM   TSTM      67  65  93 W17       30.03S FOG
MARION*        CLOUDY    69  57  66 W10G24    30.05R

$$
INZ028>050-292200-
CENTRAL INDIANA

CITY           SKY/WX    TMP DP  RH WIND       PRES   REMARKS
LAFAYETTE      SUNNY     77  56  48 W12G20    30.02F
KOKOMO*        MOSUNNY   70  59  68 SW5       30.04S
MUNCIE*        PTSUNNY   74  53  48 VRB3      30.03F
INDIANAPOLIS   LGT RAIN  70  59  68 W13       30.06F

$$
MIZ043>046-050>051-056>058-064>065-071>073-077>080-292200-
SOUTHWEST LOWER MICHIGAN

CITY           SKY/WX    TMP DP  RH WIND       PRES   REMARKS
BATTLE CREEK   MOSUNNY   75  56  51 W14       29.98F
BENTON HARBOR  SUNNY     69  58  67 W8        30.02F
COLDWATER*     PTSUNNY   67  62  85 S5        29.99S
HILLSDALE*     PTSUNNY   69  58  67 W7        30.00F
HOLLAND        SUNNY     69  58  67 W10       30.01F
GRAND RAPIDS   MOSUNNY   75  53  46 W16G23    29.97S
KALAMAZOO      MOSUNNY   74  55  51 W14       29.99S
STURGIS*         N/A     73  55  53 W12       29.99S
THREE RIVERS*  FAIR      76  56  51 W14G21    30.00S

$$
OHZ001>008-015>018-024>025-292200-
NORTHWEST OHIO

CITY           SKY/WX    TMP DP  RH WIND       PRES   REMARKS
WAUSEON*       PTSUNNY   72  55  56 SW10      29.99S
DEFIANCE       MOSUNNY   73  53  49 W6        30.00F
FINDLAY        PTSUNNY   73  52  47 W13       30.01S
TOLEDO EXPRESS MOSUNNY   73  53  49 W14G20    29.98F
TOLEDO METCALF PTSUNNY   73  51  46 W14       29.99F
LIMA           PTSUNNY   70  55  59 W12       30.03S

$$
&&


USA.gov is the U.S. government's official web portal to all federal, state and local government web resources and services.